Probability
16 19 48 45 42 55 58 58 58 61 58 48 39 39 35 35 39 35 32 32 39 39 29 23 23 26 23 23 23 23 13 10 13 10 16 19 13 10 3 13 10 6 13
13 19 45 48 45 55 55 58 58 58 55 55 42 39 32 35 35 32 32 29 29 39 32 19 19 23 19 23 16 6 10 6 6 0 0 0 10 13 10 10 16 6 13
13 23 35 45 52 52 52 58 58 58 52 55 55 45 39 29 35 35 26 32 32 32 29 23 19 13 19 13 6 6 6 6 3 0 0 0 0 6 3 10 13 10 10
13 16 23 32 42 45 48 58 58 52 52 55 48 52 48 42 35 32 23 29 26 19 19 19 23 16 13 6 3 6 6 3 3 0 0 0 0 0 10 10 3 6 6
13 13 16 35 39 39 42 55 55 55 52 48 52 52 45 45 35 29 29 26 29 26 13 16 10 6 13 10 3 3 3 3 0 0 0 0 0 0 3 3 3 3 6
10 13 23 32 32 32 39 42 45 52 52 42 42 52 48 39 35 23 29 29 16 13 10 16 10 6 6 6 3 3 3 3 0 0 0 0 0 0 0 0 0 3 3
10 10 19 29 29 29 35 39 35 45 45 39 42 45 45 35 42 32 19 26 13 10 10 10 10 10 3 6 3 3 3 3 0 0 0 0 0 0 0 0 0 0 0
10 13 16 23 23 26 29 32 35 35 39 42 42 39 45 45 39 32 16 13 10 13 10 10 6 6 3 3 3 3 3 0 0 0 0 0 0 0 0 0 0 0 0
10 13 13 16 13 19 16 19 23 29 35 32 39 35 35 48 42 32 13 16 16 13 10 10 6 6 3 0 0 0 0 0 0 0 0 0 0 0 0 0 0 0 0
13 16 13 16 10 16 16 16 19 23 19 19 19 19 6 3 19 16 13 13 16 16 10 6 10 3 3 0 0 0 0 0 0 0 0 0 0 0 0 0 0 0 0
13 16 13 13 6 10 16 13 10 13 6 3 3 0 0 3 3 6 10 10 10 13 10 10 6 3 0 0 0 0 0 0 0 0 0 0 0 0 0 0 0 0 0
16 16 13 13 10 6 10 13 10 10 0 3 0 0 0 3 0 0 0 0 3 3 6 6 3 0 0 0 0 0 0 0 0 0 0 0 3 0 0 3 3 0 0
13 16 13 16 16 13 10 6 6 3 0 0 0 0 0 0 0 0 0 0 0 0 3 3 0 0 0 0 0 0 0 0 0 0 0 0 3 3 3 3 3 3 3
10 13 13 13 16 16 6 6 6 6 3 0 0 3 0 0 0 0 0 0 0 0 0 3 0 0 0 0 0 0 0 0 0 0 0 0 0 0 0 0 0 0 0
6 10 10 13 16 13 10 6 10 6 3 3 0 3 3 0 0 0 0 0 0 0 0 0 0 0 0 0 0 0 0 0 0 0 0 0 0 0 0 0 0 0 0
3 10 6 6 10 13 6 3 10 3 3 3 3 3 3 0 0 0 0 0 0 0 0 0 0 0 0 0 0 0 0 0 0 0 0 0 0 0 0 0 0 0 0
3 3 6 6 10 10 6 3 10 3 3 3 3 3 3 0 0 0 0 0 0 0 0 0 0 0 0 0 0 0 0 0 0 0 0 0 0 0 0 0 0 0 0
3 3 3 3 6 6 3 3 3 3 3 3 3 3 3 3 0 0 0 0 0 0 0 0 0 0 0 0 0 0 0 0 0 0 0 0 0 0 0 0 0 0 0
3 3 3 3 0 3 3 3 3 3 3 3 3 3 3 3 0 0 3 0 0 0 0 0 0 0 0 0 0 0 0 0 0 0 0 0 0 0 0 0 0 0 0
3 3 3 0 3 3 3 0 0 3 3 3 0 0 0 0 0 0 0 0 0 0 0 0 0 0 0 0 0 0 0 0 0 0 0 0 0 0 0 0 0 0 0
3 3 3 0 3 3 3 0 0 0 0 0 0 0 0 0 0 0 0 0 0 0 0 0 0 0 0 0 0 0 0 0 0 0 0 0 0 0 0 0 0 0 0
3 3 0 0 0 3 3 0 0 0 0 0 0 0 0 0 0 0 0 0 0 0 0 0 0 0 0 0 0 0 0 0 0 0 0 0 0 0 0 0 0 0 0
0 3 3 0 0 3 3 0 0 0 0 0 0 0 0 0 0 0 0 0 0 0 0 0 0 0 0 0 0 0 0 0 0 0 0 0 0 0 0 0 0 0 0
0 0 0 0 0 0 0 0 0 0 0 0 0 0 0 0 0 0 0 0 0 0 0 0 0 0 0 0 0 0 0 0 0 0 0 0 0 0 0 0 0 0 0
0 0 0 0 0 0 0 0 0 0 0 0 0 0 0 0 0 0 0 0 0 0 0 0 0 0 0 0 0 0 0 0 0 0 0 0 0 0 0 0 0 0 0
0 0 0 0 0 0 0 0 0 0 0 0 0 0 0 0 0 0 0 0 0 0 0 0 0 0 0 0 0 0 0 0 0 0 0 0 0 0 0 0 0 0 0
Height
5836 5837 5838 5839 5841 5842 5843 5845 5846 5847 5848 5849 5851 5852 5852 5853 5854 5855 5856 5857 5858 5858 5859 5860 5860 5861 5861 5862 5862 5862 5863 5863 5863 5864 5864 5864 5864 5864 5863 5863 5863 5863 5862
5832 5834 5835 5837 5838 5840 5841 5842 5844 5845 5846 5847 5849 5850 5851 5852 5853 5854 5855 5856 5856 5857 5858 5859 5859 5860 5861 5861 5862 5862 5862 5863 5863 5863 5864 5864 5864 5864 5863 5863 5863 5863 5862
5829 5831 5832 5834 5835 5837 5838 5839 5841 5842 5844 5845 5847 5848 5849 5850 5851 5852 5853 5854 5855 5856 5857 5857 5858 5859 5860 5860 5861 5861 5862 5862 5863 5863 5863 5863 5864 5864 5863 5863 5863 5862 5862
5825 5827 5829 5830 5832 5833 5835 5836 5838 5839 5841 5842 5844 5846 5847 5848 5849 5850 5852 5853 5854 5855 5855 5856 5857 5858 5859 5860 5860 5861 5861 5862 5862 5862 5863 5863 5863 5863 5863 5863 5862 5862 5862
5821 5823 5824 5826 5828 5829 5831 5833 5834 5836 5837 5839 5841 5843 5844 5846 5847 5848 5849 5851 5852 5853 5854 5855 5856 5857 5857 5858 5859 5860 5860 5861 5861 5861 5862 5862 5862 5862 5862 5862 5861 5861 5861
5817 5818 5820 5822 5823 5825 5827 5829 5830 5832 5834 5836 5837 5839 5841 5843 5844 5846 5847 5848 5850 5851 5852 5853 5854 5855 5856 5857 5857 5858 5859 5859 5860 5860 5861 5861 5861 5861 5861 5861 5861 5860 5860
5811 5813 5815 5817 5818 5821 5823 5825 5826 5828 5830 5832 5834 5836 5837 5839 5841 5843 5844 5846 5847 5848 5849 5851 5852 5853 5854 5855 5856 5856 5857 5858 5859 5859 5860 5860 5860 5860 5860 5860 5860 5859 5859
5805 5807 5810 5811 5813 5815 5818 5820 5822 5824 5826 5828 5830 5832 5834 5835 5837 5839 5841 5843 5844 5846 5847 5848 5849 5850 5852 5853 5853 5854 5855 5856 5857 5857 5858 5858 5858 5858 5858 5858 5858 5858 5858
5798 5801 5803 5805 5808 5810 5812 5815 5817 5819 5821 5823 5825 5827 5829 5831 5833 5835 5837 5839 5841 5842 5844 5845 5846 5848 5849 5850 5851 5852 5853 5854 5855 5855 5856 5856 5856 5857 5857 5857 5857 5856 5856
5791 5794 5797 5799 5801 5804 5806 5809 5811 5814 5816 5818 5820 5823 5825 5827 5829 5831 5833 5835 5837 5839 5840 5842 5843 5844 5846 5847 5848 5849 5850 5851 5852 5853 5853 5854 5854 5854 5855 5855 5855 5854 5854
5783 5786 5789 5792 5795 5797 5800 5802 5805 5807 5810 5812 5815 5817 5820 5822 5824 5826 5828 5831 5833 5835 5836 5838 5839 5841 5842 5844 5845 5846 5847 5849 5849 5850 5851 5851 5851 5852 5852 5852 5852 5852 5852
5775 5778 5782 5784 5787 5790 5793 5796 5798 5801 5803 5806 5809 5811 5814 5816 5819 5821 5823 5826 5828 5830 5832 5834 5835 5837 5838 5840 5841 5842 5844 5845 5846 5847 5847 5848 5848 5849 5849 5849 5849 5849 5849
5766 5770 5773 5776 5779 5782 5785 5788 5791 5794 5797 5799 5802 5805 5808 5810 5813 5815 5818 5820 5822 5825 5827 5829 5831 5832 5834 5835 5837 5838 5840 5841 5842 5843 5844 5844 5845 5846 5846 5846 5846 5846 5846
5757 5760 5764 5767 5771 5774 5777 5780 5783 5786 5789 5792 5795 5798 5801 5804 5807 5809 5812 5814 5816 5819 5821 5823 5825 5827 5829 5831 5832 5834 5835 5837 5838 5839 5840 5840 5841 5842 5842 5842 5843 5843 5843
5747 5751 5755 5758 5761 5765 5768 5771 5774 5778 5781 5784 5787 5790 5794 5797 5800 5803 5805 5808 5810 5812 5815 5817 5819 5822 5824 5825 5827 5829 5830 5832 5833 5834 5835 5836 5837 5837 5838 5839 5839 5839 5839
5737 5741 5745 5748 5752 5755 5758 5762 5766 5769 5773 5776 5779 5782 5786 5789 5792 5795 5798 5800 5803 5806 5808 5811 5813 5815 5818 5820 5821 5823 5824 5826 5828 5829 5830 5831 5832 5833 5834 5834 5835 5835 5835
5726 5730 5734 5738 5742 5746 5749 5753 5756 5760 5763 5767 5771 5774 5777 5781 5784 5788 5791 5793 5796 5798 5801 5803 5806 5808 5811 5813 5815 5817 5818 5820 5822 5823 5825 5826 5827 5828 5829 5829 5830 5830 5830
5715 5719 5724 5728 5732 5736 5740 5744 5747 5751 5754 5758 5762 5766 5769 5773 5776 5779 5783 5786 5788 5791 5794 5796 5799 5801 5803 5806 5808 5810 5812 5814 5816 5817 5819 5820 5821 5822 5823 5824 5824 5825 5825
5703 5708 5713 5718 5722 5726 5730 5734 5738 5742 5746 5749 5753 5757 5761 5764 5768 5771 5774 5777 5780 5783 5786 5789 5792 5794 5796 5798 5801 5803 5805 5807 5809 5811 5812 5814 5815 5816 5817 5818 5819 5819 5820
5693 5697 5702 5707 5712 5716 5720 5725 5729 5733 5737 5741 5744 5748 5752 5756 5759 5762 5766 5769 5772 5774 5778 5780 5783 5786 5788 5790 5793 5795 5797 5799 5801 5803 5805 5807 5808 5809 5810 5811 5812 5813 5813
5682 5687 5692 5697 5702 5706 5711 5715 5719 5723 5728 5732 5736 5739 5743 5747 5750 5754 5757 5760 5763 5766 5769 5772 5775 5777 5780 5782 5784 5787 5789 5791 5793 5795 5797 5799 5800 5802 5803 5804 5805 5806 5807
5672 5677 5682 5687 5692 5696 5701 5705 5709 5714 5718 5722 5726 5730 5734 5738 5741 5744 5747 5751 5754 5757 5760 5762 5765 5768 5770 5773 5775 5777 5780 5783 5784 5787 5789 5791 5792 5794 5795 5796 5798 5798 5799
5663 5667 5672 5676 5681 5686 5690 5695 5699 5704 5708 5712 5717 5721 5725 5728 5732 5735 5738 5741 5744 5747 5750 5753 5756 5759 5761 5764 5766 5768 5770 5773 5775 5778 5779 5781 5783 5785 5787 5788 5789 5790 5791
5653 5657 5661 5666 5670 5675 5679 5684 5688 5694 5698 5703 5707 5711 5715 5718 5722 5725 5728 5731 5734 5737 5740 5743 5746 5749 5752 5754 5757 5759 5761 5763 5766 5769 5771 5772 5774 5775 5777 5778 5780 5781 5783
5644 5648 5652 5656 5660 5664 5668 5672 5677 5683 5688 5692 5696 5700 5704 5708 5712 5715 5718 5721 5724 5727 5730 5733 5736 5739 5741 5744 5747 5749 5751 5754 5756 5758 5761 5763 5765 5766 5767 5769 5771 5772 5773
5635 5638 5641 5645 5649 5653 5657 5661 5667 5672 5677 5682 5686 5690 5694 5698 5701 5704 5707 5710 5713 5716 5719 5722 5725 5728 5731 5734 5736 5739 5741 5743 5746 5748 5750 5752 5754 5756 5757 5759 5761 5762 5764
Wind_Speed
17 16 16 16 16 15 15 15 14 14 13 13 12 12 12 12 11 10 9 9 8 7 6 6 5 4 4 3 2 2 2 1 1 1 1 2 2 3 3 4 4 5 5
18 18 18 18 17 17 17 16 16 15 15 15 14 14 14 13 12 12 11 10 9 8 8 7 6 5 5 4 3 3 2 2 1 1 1 2 2 3 3 3 4 4 5
20 20 19 19 19 19 18 18 18 17 17 17 16 16 15 15 14 13 12 12 11 10 9 8 7 6 6 5 4 3 3 3 3 2 2 2 3 3 3 3 4 4 5
22 22 21 21 21 20 20 20 20 19 19 19 18 18 17 17 16 15 14 13 12 11 10 9 8 8 7 6 6 5 5 4 4 4 4 4 4 4 3 4 4 5 5
23 23 23 24 23 22 22 22 21 21 20 20 20 20 19 18 17 16 15 14 13 12 11 10 9 9 8 8 7 7 6 5 5 5 5 5 5 5 4 5 5 5 5
25 25 25 25 25 25 24 24 23 22 22 21 21 21 20 20 19 18 17 16 15 14 12 12 11 10 10 9 8 8 7 6 6 6 6 6 6 6 6 6 6 6 6
27 26 26 27 27 27 26 25 25 24 23 23 22 22 22 21 21 20 19 18 17 16 14 14 13 12 11 10 10 9 9 8 8 8 7 7 7 7 7 6 7 7 7
29 28 28 28 28 28 28 27 27 26 25 24 24 24 23 23 22 22 21 20 18 17 17 16 15 13 13 12 11 10 10 10 10 9 9 8 8 8 8 8 8 7 8
32 31 30 30 30 30 29 29 28 28 27 26 26 25 25 24 24 23 22 21 20 19 18 18 16 15 14 14 14 13 12 11 11 11 10 10 10 9 9 9 9 9 9
34 33 32 32 32 32 32 31 30 30 29 28 28 27 27 26 26 25 24 23 22 21 20 20 18 17 16 16 15 15 14 14 13 13 12 11 11 11 10 10 11 11 10
35 34 34 34 33 33 34 33 32 31 31 31 30 29 29 28 28 27 26 25 24 23 22 21 20 19 18 18 17 17 17 16 15 15 14 13 13 12 12 11 12 12 12
37 36 36 36 35 35 35 35 34 33 33 32 32 31 31 30 30 29 28 27 26 25 25 24 23 22 21 20 19 19 18 17 17 17 16 15 14 14 13 13 13 13 13
38 38 38 38 37 37 37 37 36 36 35 34 34 33 32 32 31 31 30 29 29 28 27 26 25 24 23 22 21 21 20 19 18 18 18 17 17 16 15 15 14 14 14
40 39 39 39 39 38 39 39 39 38 37 36 35 34 34 34 33 32 32 31 31 30 28 27 26 25 25 24 24 23 22 21 20 19 19 19 18 17 16 16 16 15 15
41 41 41 40 40 39 40 41 41 40 39 38 37 36 35 34 34 34 34 33 32 31 30 29 28 28 27 26 25 25 24 23 22 21 20 20 19 19 18 18 17 17 17
41 41 42 42 42 40 40 40 41 41 41 40 40 38 37 36 35 35 34 34 34 33 31 30 30 29 29 28 27 27 25 25 24 23 22 22 21 20 20 20 19 19 18
42 42 43 43 42 42 41 41 42 42 42 42 41 39 38 37 37 36 36 35 35 34 33 31 31 30 31 30 30 29 28 27 26 25 24 23 23 22 22 22 21 20 20
43 43 43 44 43 42 42 42 43 42 41 41 41 40 40 39 39 39 38 37 36 35 34 33 33 32 31 31 31 31 30 29 28 27 26 25 25 24 24 23 23 22 22
43 43 44 44 44 43 43 43 43 42 41 40 41 40 40 40 39 39 39 38 38 37 36 35 35 34 33 32 31 31 31 30 30 30 28 27 27 26 26 25 25 24 24
42 43 44 44 44 44 43 43 43 44 42 42 41 41 40 40 41 40 39 40 39 38 37 37 36 35 34 34 33 32 32 32 32 31 30 30 29 28 27 27 27 26 26
42 43 44 44 44 44 43 43 44 44 44 43 42 41 41 40 40 41 40 40 39 38 38 38 37 36 36 36 35 35 34 33 33 33 32 32 31 30 29 29 29 28 27
42 43 44 44 45 45 44 44 43 44 45 44 44 43 43 42 41 41 42 41 40 40 39 39 39 38 37 36 36 36 36 35 34 34 34 34 34 33 31 30 30 30 29
42 43 44 44 45 46 46 46 45 45 45 45 44 44 44 44 43 42 42 42 42 41 41 40 39 38 39 38 38 37 37 36 36 35 35 35 35 35 34 32 32 31 31
42 42 44 45 45 45 46 47 47 47 45 45 45 45 46 45 44 44 44 43 42 42 42 41 41 40 39 39 39 39 38 38 37 37 36 36 35 36 36 35 34 33 33
41 43 43 45 46 45 45 45 47 47 46 45 45 45 46 46 45 45 44 43 43 42 42 42 41 41 41 40 40 40 39 39 39 38 37 36 36 37 37 36 36 36 35
41 42 43 44 45 46 46 46 47 47 46 45 45 45 45 45 44 45 45 44 43 43 44 43 43 42 41 41 41 41 41 41 41 40 40 39 39 38 38 38 38 37 37
Wind_Direction
244 243 239 237 236 234 231 229 227 226 224 224 223 222 221 220 218 218 220 221 220 221 221 221 222 219 216 220 228 236 240 246 265 326 348 357 4 10 13 13 14 15 13
243 243 241 240 238 236 234 233 230 229 227 226 226 225 224 223 224 225 224 225 225 225 224 224 225 227 229 232 239 238 234 239 248 285 321 335 344 349 355 357 359 2 0
242 242 241 241 240 239 237 235 234 233 231 229 228 228 227 226 226 226 227 229 228 227 227 228 228 231 235 236 237 240 238 239 250 268 289 307 318 325 332 337 341 344 345
243 242 242 241 240 240 238 236 236 234 234 233 232 231 230 229 227 228 229 231 231 231 231 231 229 232 233 235 237 243 241 241 252 263 273 284 296 305 311 318 324 329 333
244 243 242 242 240 240 239 237 236 235 234 234 234 233 232 231 231 230 230 230 231 233 233 233 232 233 234 236 239 244 247 247 255 262 266 274 282 289 298 305 309 316 322
244 243 243 243 242 241 240 239 236 235 234 234 234 234 233 232 232 231 231 230 231 234 235 234 234 235 236 237 240 245 248 249 254 261 266 268 273 282 289 297 302 306 310
244 243 243 243 243 242 241 240 239 237 235 234 235 234 233 232 232 231 232 232 233 235 235 235 236 237 237 239 241 245 248 249 252 257 265 271 272 277 284 291 295 298 300
244 244 244 243 243 242 241 240 240 239 236 236 236 236 235 234 234 233 232 232 234 237 237 236 238 238 239 240 242 246 248 251 253 256 261 267 272 275 279 284 289 293 295
244 243 244 243 243 242 241 240 240 240 238 236 237 237 236 235 235 235 233 233 234 236 236 237 237 239 241 244 245 246 249 252 254 257 261 265 269 274 278 280 284 289 292
244 243 243 244 243 242 242 240 240 240 239 237 237 238 237 237 236 236 235 235 236 237 236 236 236 240 243 244 247 247 248 251 253 257 260 263 267 271 277 279 281 285 288
243 242 243 243 244 242 242 240 240 240 240 239 238 238 239 239 238 237 237 237 238 239 238 238 239 242 244 246 248 249 250 252 254 258 260 263 267 269 274 279 281 283 286
243 243 242 243 243 243 241 241 240 240 240 240 239 238 239 239 238 238 238 239 239 240 241 243 244 244 246 247 248 250 252 254 255 257 259 261 263 266 270 275 280 281 283
244 243 242 242 243 243 241 240 240 240 240 240 240 238 239 238 239 239 239 239 239 241 242 244 245 245 247 248 250 251 253 255 256 257 258 260 262 265 267 271 276 279 282
243 243 242 242 242 242 242 241 240 239 240 240 240 239 239 238 238 239 239 239 240 241 241 242 245 246 249 249 251 252 253 256 257 258 258 258 260 263 266 269 274 277 279
242 242 241 241 241 242 242 240 240 239 239 239 240 240 238 238 239 240 241 241 241 240 242 242 244 246 248 250 251 252 253 255 256 258 258 258 259 262 265 268 272 274 276
243 242 242 242 241 241 241 240 239 240 240 241 241 241 240 238 239 239 240 240 242 242 243 244 245 246 248 250 251 252 253 254 256 258 258 259 261 261 265 268 271 273 275
244 243 242 241 241 240 241 241 240 240 239 240 241 241 240 239 238 239 240 241 243 243 245 245 246 248 249 250 251 252 253 254 256 256 257 259 261 262 264 268 269 271 273
244 243 242 241 240 240 240 240 240 240 240 240 240 241 240 239 238 240 240 242 242 244 246 246 247 248 249 250 251 252 252 254 254 255 257 259 261 263 265 267 268 270 273
244 242 241 241 240 241 240 240 240 239 240 240 240 240 241 241 241 241 242 244 245 245 245 247 248 249 249 250 251 252 253 254 255 255 257 258 260 262 264 266 268 270 273
243 242 241 240 240 240 241 240 240 239 241 241 241 240 241 241 241 241 242 245 246 246 246 247 248 249 250 251 252 252 253 254 255 256 257 259 259 260 262 265 267 269 271
242 242 242 240 239 240 241 240 240 239 241 242 242 242 242 243 243 243 243 245 247 246 247 248 248 249 251 252 253 253 253 254 255 256 257 258 259 260 261 264 266 267 269
241 241 240 239 239 239 240 240 241 241 241 242 243 243 243 244 244 245 245 245 248 249 248 249 249 250 252 253 254 254 254 254 255 257 257 259 260 261 262 263 265 266 267
241 240 240 239 240 240 241 241 240 240 241 243 242 243 244 245 246 247 247 248 249 250 249 250 250 252 253 253 254 255 255 255 256 257 258 259 260 261 262 264 265 265 266
241 240 239 239 240 240 241 241 241 241 242 243 243 243 244 245 247 248 249 249 250 251 250 250 250 252 253 253 253 254 255 256 256 257 257 258 259 261 263 264 264 264 266
243 242 241 240 239 239 240 240 240 241 242 243 243 243 244 245 247 248 250 249 249 250 250 250 250 252 252 253 253 254 255 256 258 258 257 258 259 261 262 264 264 264 265
244 243 241 239 239 240 241 241 241 241 242 242 243 244 244 245 247 248 248 249 250 250 251 251 250 251 252 252 253 254 255 256 258 259 259 260 260 261 262 263 264 264 265